RH
36 38 26 21 18 19 18 18 20 21 18 17 16 17 18 19 20 18 16 14 13 13 12 12 12 11 10 10 9 10 12 13
41 44 32 25 18 19 19 20 20 21 19 17 17 18 19 20 21 19 16 13 12 11 11 10 10 10 10 10 10 12 13 14
45 41 42 32 21 20 20 19 20 20 21 18 17 18 19 19 20 21 18 15 13 12 11 10 10 10 11 11 11 13 13 15
39 40 44 41 27 20 21 21 20 21 22 21 18 18 19 19 19 21 22 19 16 14 13 13 13 13 14 13 13 14 14 15
46 47 40 47 36 22 21 21 21 22 23 22 21 18 19 19 19 19 21 22 21 19 18 18 17 16 15 15 14 15 15 16
52 42 39 46 46 30 24 23 22 22 25 24 25 19 19 19 18 18 19 21 22 22 22 22 22 20 18 17 16 16 16 17
48 40 44 36 49 42 29 23 23 24 24 25 26 25 20 19 18 18 19 19 20 20 20 22 22 22 22 21 19 17 17 18
47 44 36 34 33 46 43 29 24 25 24 25 28 27 26 21 19 18 18 19 19 19 19 20 21 22 23 22 21 19 18 18
26 37 43 40 29 42 47 42 28 26 26 25 28 29 28 26 20 18 18 18 20 20 21 21 22 22 23 23 22 20 19 19
24 28 32 44 38 33 47 45 34 29 28 28 28 29 30 29 27 22 18 18 19 21 22 23 24 24 24 24 24 22 20 20
24 25 32 38 50 44 40 42 46 34 31 31 29 29 31 30 30 28 20 19 19 21 22 24 25 26 26 26 26 24 22 21
34 27 34 46 56 52 46 45 40 40 35 34 34 32 32 32 32 31 25 23 20 21 22 25 26 27 28 28 28 27 24 23
38 37 30 47 56 56 47 44 46 41 41 40 38 36 35 33 34 34 30 28 25 23 23 25 27 29 30 31 31 30 28 25
46 40 39 33 47 57 53 45 47 45 49 52 48 44 41 38 38 37 35 32 30 28 26 27 29 31 32 33 33 31 30 28
40 41 42 38 34 48 52 62 62 49 43 49 57 54 52 47 45 44 42 40 38 32 30 31 30 32 34 35 35 34 31 30
42 42 43 45 36 36 42 46 50 51 44 46 56 64 62 58 56 56 53 50 45 38 36 33 33 34 35 36 37 37 35 32
56 64 63 58 55 47 38 41 46 58 59 55 57 58 67 77 70 70 67 62 55 47 41 38 34 34 36 37 38 39 38 34
56 73 78 74 69 57 46 46 44 50 56 58 62 63 66 74 77 83 82 76 66 58 46 38 36 34 36 38 40 41 40 38
70 81 85 85 90 81 71 61 55 55 56 62 68 68 73 80 81 88 88 91 81 64 49 36 37 35 39 41 42 43 44 43
98 98 92 98 93 85 69 100 94 77 64 68 85 85 94 100 100 100 88 96 99 76 48 37 38 36 40 42 44 45 46 48
Wind_Speed
17 16 21 20 17 14 11 9 9 9 10 10 10 9 8 8 7 6 5 5 5 5 5 5 5 5 6 8 5 2 5 6
18 16 21 21 20 17 14 11 11 10 10 11 11 10 9 7 7 7 7 6 5 6 6 6 6 7 9 10 5 3 5 7
18 16 20 23 23 20 17 14 13 12 10 11 12 11 11 11 8 7 7 7 7 7 7 8 8 9 11 8 7 4 6 7
18 17 22 25 26 23 21 18 15 13 12 11 12 12 13 11 10 9 8 8 8 8 8 9 9 10 12 10 9 7 9 8
20 21 22 26 27 26 24 21 18 16 14 13 11 13 15 13 12 11 10 10 9 9 10 10 10 12 15 11 10 9 10 9
24 24 23 26 29 29 28 25 22 19 17 15 11 14 17 15 14 13 13 12 11 11 12 12 12 13 15 12 11 10 11 10
29 28 26 28 31 31 31 30 26 23 21 17 14 16 17 18 16 16 14 15 14 14 13 14 13 13 15 14 13 13 12 11
33 31 30 30 31 32 33 33 30 27 24 20 18 18 18 19 19 19 17 16 16 17 16 15 15 14 15 18 14 14 14 13
34 35 35 34 34 35 35 35 34 29 27 24 22 21 19 20 21 21 21 19 19 19 18 17 16 17 17 17 18 16 15 15
35 34 38 39 37 38 38 37 36 33 31 29 27 24 23 22 22 22 22 22 21 20 19 19 18 18 18 18 18 20 17 17
36 35 36 41 41 39 38 39 38 37 35 34 31 28 26 25 25 24 24 25 23 23 21 21 20 20 20 19 19 20 20 21
31 37 37 39 41 41 41 41 42 41 39 37 35 31 29 28 27 26 26 26 26 25 24 23 23 22 22 23 22 22 21 22
35 34 39 38 40 40 43 43 45 43 42 39 38 35 33 31 30 30 29 28 28 28 28 26 26 25 24 24 24 25 24 24
35 38 38 38 35 36 41 41 43 44 43 42 40 37 37 36 32 32 31 31 31 30 30 29 29 28 25 27 27 26 25 25
42 39 36 34 36 37 35 39 44 44 44 43 43 40 39 37 34 35 35 33 32 31 32 32 30 30 29 28 29 28 27 27
44 40 36 35 36 39 39 39 43 43 43 45 43 41 40 39 36 37 36 34 34 34 33 33 33 32 32 31 31 31 31 31
43 40 37 35 34 36 40 38 36 39 41 40 40 40 41 40 38 38 38 36 36 37 35 35 35 34 35 33 33 34 33 31
40 43 39 33 29 30 36 38 37 38 37 39 41 42 41 40 40 40 39 39 38 39 37 37 36 36 36 35 34 33 32 33
36 40 39 29 24 27 29 31 32 34 36 37 38 40 41 42 39 37 38 39 41 41 40 39 39 38 36 35 35 34 33 32
34 34 43 23 23 28 31 32 33 33 34 35 35 36 36 35 35 42 47 49 43 43 42 42 40 40 38 37 35 35 35 34
Wind_Direction
226 224 220 217 216 217 222 233 231 229 235 226 218 225 223 210 188 185 184 180 179 186 195 206 211 218 224 241 263 350 339 328
224 225 225 222 221 220 221 227 236 239 241 234 227 223 220 226 218 204 192 193 205 203 207 216 223 224 234 255 288 335 293 315
229 240 234 227 225 223 223 229 238 246 249 243 236 230 220 222 227 232 227 215 207 216 222 223 223 230 243 263 273 279 281 298
238 247 237 231 228 228 227 229 236 243 246 249 243 235 234 234 230 226 237 244 241 230 225 230 238 245 253 256 268 262 271 284
241 250 243 237 231 231 231 231 235 240 245 250 247 240 237 240 243 245 240 234 243 248 244 242 241 249 257 258 264 269 271 283
236 242 244 237 234 233 231 233 234 239 243 248 245 239 245 241 241 246 250 250 248 241 247 255 255 258 263 266 263 262 269 280
238 238 246 238 237 235 235 234 234 236 242 247 242 245 245 244 244 246 245 249 252 254 254 255 256 261 270 274 273 270 272 280
242 238 242 242 241 238 237 236 236 235 241 244 239 247 250 250 246 250 250 252 252 254 255 257 260 264 271 278 272 269 270 280
253 245 242 241 241 240 239 239 237 237 242 245 242 249 250 252 249 250 251 253 253 256 258 259 264 266 268 273 282 271 267 270
253 249 247 245 242 241 239 238 238 236 238 242 243 247 248 251 255 255 254 254 258 260 262 264 266 271 274 277 277 281 276 273
254 250 246 244 244 245 247 246 240 238 236 240 243 245 247 251 256 257 255 258 260 263 266 268 270 272 274 274 272 272 276 278
282 257 248 246 239 242 242 243 246 240 237 239 242 244 246 250 256 257 255 259 261 264 266 267 268 269 272 272 272 271 270 272
270 272 256 245 241 236 240 244 246 245 241 239 241 244 247 250 252 257 254 258 259 260 261 264 267 269 269 272 272 272 273 275
267 273 271 254 248 245 241 243 247 251 248 243 241 242 246 249 252 254 255 255 258 261 262 263 265 268 267 267 271 272 273 274
269 273 278 262 248 247 248 240 242 242 243 246 242 242 245 250 253 252 254 256 258 258 260 263 264 266 267 268 269 270 270 268
264 264 268 272 255 251 250 252 250 247 243 244 244 242 245 250 252 254 257 259 257 256 259 261 262 265 265 265 265 264 262 264
257 256 256 261 266 259 252 253 253 253 250 248 248 247 246 249 251 254 257 258 257 257 257 259 261 262 263 263 262 265 266 266
250 253 253 258 263 264 252 251 250 255 252 245 244 246 247 247 250 251 254 255 256 256 256 256 258 258 260 262 263 265 269 272
252 252 252 249 255 269 264 260 258 256 252 248 247 247 247 249 252 251 260 261 257 254 254 251 257 256 255 257 259 261 262 264
248 251 263 232 259 269 267 259 262 257 255 248 249 250 252 257 256 249 246 247 249 247 248 247 251 254 254 255 257 258 259 258